Regional Weather Roundup
Issued by NWS

Home | Current Version | Previous Version | Text Only | Print | Product List | Glossary On
Versions: 1 2 3 4 5 6 7 8 9 10 11 12 13 14 15 16 17 18 19 20 21 22 23 24 25 26 27 28 29 30 31 32 33 34 35 36 37 38 39 40 41 42 43 44 45 46 47 48 49 50
000
ASUS43 KFSD 280910
RWRSD

WEATHER ROUNDUP FOR SOUTH DAKOTA
NATIONAL WEATHER SERVICE SIOUX FALLS SD
400 AM CDT THU MAY 28 2015

NOTE: "FAIR" INDICATES FEW OR NO CLOUDS BELOW 12,000 FEET WITH NO
SIGNIFICANT WEATHER AND/OR OBSTRUCTIONS TO VISIBILITY.


SDZ001>005-009-010-012>017-281000-
NORTHWEST AND NORTH CENTRAL SOUTH DAKOTA

CITY           SKY/WX    TMP DP  RH WIND       PRES   REMARKS
BUFFALO          N/A     54  52  93 W5        29.86R
FAITH            N/A     55  53  93 S9        29.88S
MOBRIDGE       CLEAR     60  59  96 SE8       29.87S
$$

SDZ012>016-024>037-041>051-057-063-072>074-281000-
SOUTHWEST AND SOUTH CENTRAL SOUTH DAKOTA

CITY           SKY/WX    TMP DP  RH WIND       PRES   REMARKS
RAPID CTY ARPT CLOUDY    55  52  89 S3        29.92F
PIERRE         CLEAR     58  55  90 S9        29.91F
CUSTER         CLOUDY    50  47  89 CALM      30.02F
ELLSWORTH AFB  CLOUDY    56  56 100 VRB3      29.92S
PHILIP         PTCLDY    54  53  97 CALM      29.90F
PINE RIDGE     MOCLDY    58  51  78 S12       29.94F
SPEARFISH      LGT RAIN  54  50  87 W12       30.00R
WINNER         CLOUDY    64  55  72 S9        29.95F
$$

SDZ004>011-016>023-039-040-281000-
NORTHEAST SOUTH DAKOTA

CITY           SKY/WX    TMP DP  RH WIND       PRES   REMARKS
ABERDEEN       CLOUDY    62  58  86 E6        29.93F
WATERTOWN      CLOUDY    64  53  67 S6        29.99S
BROOKINGS      CLOUDY    63  52  67 SE7       30.02F
SISSETON         N/A     65  55  70 CALM      29.94F
$$

SDZ017-020-022-023-036>040-048>070-281000-
SOUTHEAST SOUTH DAKOTA

CITY           SKY/WX    TMP DP  RH WIND       PRES   REMARKS
SIOUX FALLS    MOCLDY    65  50  58 S8        30.02S
HURON            N/A    N/A N/A N/A MISG      29.95F
CHAMBERLAIN    CLOUDY    62  56  80 S10       29.96S
MITCHELL       CLOUDY    63  52  67 SE9       29.98S
YANKTON        CLOUDY    64  52  63 CALM      30.00S
$$

ABBREVIATIONS USED IN REMARKS
   TC - TEMPERATURE IN CELSIUS
  WCI - WIND CHILL INDEX
   HX - HEAT INDEX
  VSB - VISIBILITY




USA.gov is the U.S. government's official web portal to all federal, state and local government web resources and services.